Weather History for KLHW - August, 2012

Change the Weather History Date:

Saturday, August 25, 2012

  Actual Average Record
Temperature  
Mean Temperature 76 °F -  
Max Temperature 86 °F 90 °F 99 °F (1982)
Min Temperature 65 °F 70 °F 64 °F (1997)
Cooling Degree Days 10    
Growing Degree Days 26 (Base 50)    
Moisture  
Dew Point 66 °F    
Average Humidity 77    
Maximum Humidity 97    
Minimum Humidity 44    
Precipitation  
Precipitation 0.00 in - - ()
Sea Level Pressure  
Sea Level Pressure 30.09 in    
Wind  
Wind Speed 3 mph (NE)    
Max Wind Speed 10 mph    
Max Gust Speed -    
Visibility 10 miles    
Events      
Averages and records for this station are not official NWS values.
T = Trace of Precipitation, MM = Missing Value Source: NWS Daily Summary

Daily Weather History Graph

Daily Weather History Graph

Search for Another Location

Airport or City:

Trip Planner

Search our weather history database for the weather conditions in past years. The results will help you decide how hot, cold, wet, or windy it might be!

Date:

Astronomy

Aug. 25, 2012 Rise Set
Actual Time 6:57 AM EDT 7:58 PM EDT
Civil Twilight 6:32 AM EDT 8:23 PM EDT
Nautical Twilight 6:02 AM EDT 8:53 PM EDT
Astronomical Twilight 5:31 AM EDT 9:23 PM EDT
Moon 3:18 PM EDT (8/25) 12:51 AM EDT (8/25)
Length of Visible Light 13h 50m
Length of Day
13h 00m
Waxing Gibbous, 62% of the Moon is Illuminated
Aug 25
Waxing Gibbous
Aug 31
Full
Sep 8
Last Quarter
Sep 15
New
Sep 22
First Quarter

Hourly Weather History & Observations

Time (EDT) Temp. Heat Index Dew Point Humidity Pressure Visibility Wind Dir Wind Speed Gust Speed Precip Events Conditions
12:55 AM 71.2 °F - 69.8 °F 95% 30.10 in 10.0 mi Calm Calm - N/A   Clear
1:31 AM 71.6 °F - 69.8 °F 94% 30.10 in 10.0 mi Calm Calm - N/A   Light Drizzle
1:36 AM 71.6 °F - 69.8 °F 94% 30.10 in 10.0 mi Calm Calm - N/A   Clear
1:55 AM 70.3 °F - 68.5 °F 94% 30.09 in 10.0 mi North 3.5 mph - 0.00 in   Clear
2:55 AM 69.4 °F - 67.3 °F 93% 30.09 in 10.0 mi NNE 3.5 mph - N/A   Clear
3:55 AM 68.4 °F - 66.4 °F 93% 30.08 in 10.0 mi NNE 3.5 mph - N/A   Clear
4:55 AM 68.0 °F - 65.3 °F 91% 30.07 in 10.0 mi North 5.8 mph - N/A   Clear
5:55 AM 66.9 °F - 64.6 °F 92% 30.08 in 10.0 mi Calm Calm - N/A   Clear
6:55 AM 65.8 °F - 64.4 °F 95% 30.10 in 10.0 mi Calm Calm - N/A   Clear
7:55 AM 66.9 °F - 65.1 °F 94% 30.11 in 10.0 mi NNE 3.5 mph - N/A   Clear
8:55 AM 71.2 °F - 65.1 °F 81% 30.12 in 10.0 mi NE 4.6 mph - N/A   Clear
9:55 AM 75.9 °F - 65.1 °F 69% 30.13 in 10.0 mi NE 10.4 mph - N/A   Clear
10:55 AM 78.4 °F - 64.0 °F 61% 30.13 in 10.0 mi NE 10.4 mph - N/A   Clear
11:55 AM 80.6 °F 82.0 °F 63.5 °F 56% 30.13 in 10.0 mi Variable 5.8 mph - N/A   Clear
12:55 PM 82.9 °F 83.8 °F 62.4 °F 50% 30.12 in 10.0 mi NE 9.2 mph - N/A   Clear
1:55 PM 84.6 °F 85.6 °F 63.3 °F 49% 30.10 in 10.0 mi NNE 10.4 mph - N/A   Clear
2:55 PM 85.8 °F 86.6 °F 62.6 °F 46% 30.08 in 10.0 mi Variable 5.8 mph - N/A   Clear
3:55 PM 86.2 °F 86.6 °F 61.7 °F 44% 30.07 in 10.0 mi East 10.4 mph - N/A   Clear
4:55 PM 85.8 °F 86.3 °F 62.4 °F 45% 30.07 in 10.0 mi ESE 8.1 mph - N/A   Clear
5:55 PM 84.0 °F 87.3 °F 68.2 °F 59% 30.06 in 10.0 mi SE 5.8 mph - N/A   Clear
6:55 PM 81.9 °F 85.0 °F 68.7 °F 64% 30.07 in 10.0 mi SE 5.8 mph - N/A   Clear
7:55 PM 77.9 °F - 68.5 °F 73% 30.08 in 10.0 mi SE 4.6 mph - N/A   Clear
8:55 PM 74.3 °F - 70.2 °F 87% 30.09 in 10.0 mi Calm Calm - N/A   Clear
9:55 PM 71.8 °F - 69.4 °F 92% 30.09 in 10.0 mi Calm Calm - N/A   Clear
10:55 PM 70.2 °F - 68.5 °F 95% 30.11 in 10.0 mi Calm Calm - N/A   Clear
11:55 PM 68.0 °F - 67.1 °F 97% 30.10 in 10.0 mi Calm Calm - N/A   Clear